Starlink 5989

operational
NORAD ID: 56781 Int'l Des: 2023-078 Owner: SPXS Country: US Constellation: starlink
LEOCIRCULAR

Über Starlink 5989

Beschreibung wird geladen...

Live-Position

3D-Globus wird geladen...

Nächste Überflüge

Höhenverlauf

Altitude vs Time

uPlot chart will show altitude changes over time

Zweizeiliger Elementsatz

1 56781U 23078Q 26034.54386758 -.00000114 00000-0 -17210-5 0 9992
2 56781 69.9998 70.6277 0002799 261.8317 98.2524 14.98333764147564
Epoch: 3. Feb. 2026 • Age: 10 hours

Aktueller Status

Höhe 574.5 km
Geschwindigkeit 7.57 km/s
Subsatellitenpunkt 12.84°N, 40.68°W
Startdatum 31. Mai 2023
Alter 2.6 years
Typ internet

Technische Details

Klassifizierung Payload
Masse 305.00 kg
Trockenmasse 290.00 kg
Gesamtmasse 305.00 kg
Länge 0.20 m
Durchmesser 2.80 m
Spannweite 9.00 m
Form Box + pan
Hersteller SPXS
Bus-Typ Starlink
Phasenstatus In Orbit
Besitzer/Staat SPXS/US

Große Konstellationen

Loading constellations...